This is the latest recevied weather packets stored in our database for station/object wb2ifs-13. If no packets are shown the sender has not sent any weather packets the latest 10 day(s).
| Time | Temp. | Humidity | Pressure | Rain* | Wind** | Luminosity | Snow |
|---|---|---|---|---|---|---|---|
| 1777936500 | 22.78° C | 41% | 1011 hPa | 0 mm | - | - | - |
| 1777935602 | 23.33° C | 40% | 1011.1 hPa | 0 mm | - | - | - |
| 1777933800 | 23.33° C | 39% | 1011.1 hPa | 0 mm | - | - | - |
| 1777932899 | 23.89° C | 37% | 1011.1 hPa | 0 mm | - | - | - |
| 1777931999 | 24.44° C | 36% | 1011.1 hPa | 0 mm | - | - | - |
| 1777930199 | 25.56° C | 34% | 1011.1 hPa | 0 mm | - | - | - |
| 1777929299 | 25.56° C | 34% | 1011.2 hPa | 0 mm | - | - | - |
| 1777928402 | 25.56° C | 32% | 1011.2 hPa | 0 mm | - | - | - |
| 1777927504 | 25° C | 33% | 1011.1 hPa | 0 mm | - | - | - |
| 1777926600 | 25.56° C | 33% | 1011.2 hPa | 0 mm | - | - | - |
| 1777925701 | 25.56° C | 34% | 1011.3 hPa | 0 mm | - | - | - |
| 1777924801 | 25.56° C | 34% | 1011.5 hPa | 0 mm | - | - | - |
| 1777923901 | 25° C | 34% | 1011.6 hPa | 0 mm | - | - | - |
| 1777922999 | 25° C | 34% | 1011.9 hPa | 0 mm | - | - | - |
| 1777922099 | 25.56° C | 33% | 1012.1 hPa | 0 mm | - | - | - |
| 1777921202 | 25.56° C | 35% | 1012.2 hPa | 0 mm | - | - | - |
| 1777920302 | 24.44° C | 34% | 1012.5 hPa | 0 mm | - | - | - |
| 1777919401 | 23.89° C | 36% | 1012.7 hPa | 0 mm | - | - | - |
| 1777918501 | 23.89° C | 36% | 1013.1 hPa | 0 mm | - | - | - |
| 1777917601 | 23.89° C | 37% | 1013.4 hPa | 0 mm | - | - | - |
| 1777916699 | 23.89° C | 37% | 1013.4 hPa | 0 mm | - | - | - |
| 1777915800 | 23.33° C | 37% | 1013.8 hPa | 0 mm | - | - | - |
| 1777914898 | 23.33° C | 36% | 1013.8 hPa | 0 mm | - | - | - |
| 1777913999 | 23.89° C | 35% | 1013.8 hPa | 0 mm | - | - | - |
| 1777913099 | 22.78° C | 35% | 1013.9 hPa | 0 mm | - | - | - |
* Rain latest hour (hover to see other rain measurements)
** Current wind speed in m/s (hover to see current wind gust speed)